Location: Lugrin
(46.4033°N, 6.6674°E)
Time: 20:29:50
(UTC+00:00)

X-37B - Visible Passes

Search period start: 30 November 2020 00:00
Search period end: 10 December 2020 00:00
Orbit: 384 x 390 km, 45.0° (Epoch: 26 November)

Date Brightness Start Highest point End Pass type
(mag) Time Alt. Az. Time Alt. Az. Time Alt. Az.
30 Nov 2.0 16:48:10 10° SW 16:50:56 28° SSE 16:53:08 14° E visible
30 Nov 3.1 18:24:08 10° WSW 18:25:25 22° WSW 18:25:25 22° WSW visible
01 Dec 1.0 17:25:39 10° WSW 17:28:46 54° SSE 17:29:28 42° ESE visible
02 Dec 1.5 16:27:17 10° SW 16:30:16 40° SSE 16:33:17 10° E visible
02 Dec 1.9 18:03:33 10° W 18:05:47 40° WSW 18:05:47 40° WSW visible
03 Dec 0.8 17:05:01 10° WSW 17:08:11 65° S 17:09:50 25° E visible
03 Dec 3.9 18:41:34 10° W 18:42:06 14° W 18:42:06 14° W visible
04 Dec 0.7 17:43:01 10° W 17:46:10 66° S 17:46:11 66° S visible
05 Dec 0.8 16:44:28 10° W 16:47:37 70° S 16:50:19 13° E visible
05 Dec 3.0 18:21:04 10° W 18:22:35 24° WSW 18:22:35 24° WSW visible
06 Dec 1.1 17:22:28 10° W 17:25:35 55° SSW 17:26:47 31° SE visible
07 Dec 0.9 16:23:55 10° W 16:27:03 66° S 16:30:13 10° ESE visible
07 Dec 2.3 18:00:38 10° W 18:03:22 28° SSW 18:03:22 28° SSW visible
08 Dec 1.7 17:01:58 10° W 17:04:59 41° SSW 17:07:49 11° SE visible
08 Dec 4.0 18:39:46 10° WSW 18:40:07 11° SW 18:40:07 11° SW visible
09 Dec 3.1 17:40:23 10° WSW 17:42:43 19° SSW 17:44:45 12° SSE visible
